Wind_Speed
23 24 25 26 27 27 27 27 27 27 28 28 28 28 27 24 22 21 20 19 18 17 17 16 17 18 19 19 18 18 17 17 16 14 13 13 12 11 10 9 7 7 6 5 5 5 6 8 9 10 11 12 12 12 12 12 13 13 12 13 13 11 11 13 11 22 39 38 32 37 37 36 40 40 41 46 49 49 47 45 45 47 46 46 46
23 24 25 26 26 27 27 27 27 28 29 29 29 28 26 23 22 21 21 20 18 18 19 19 20 21 21 20 19 18 17 17 16 14 12 12 11 10 9 7 6 5 4 4 5 7 8 9 10 11 12 12 13 13 13 13 13 14 14 13 14 13 11 14 16 18 31 43 41 40 38 34 35 38 39 40 44 48 50 49 49 48 49 49 47
24 25 26 26 26 27 28 28 29 29 30 29 28 26 24 22 21 21 22 21 20 20 21 23 23 22 21 20 20 19 17 16 15 13 11 10 10 9 7 6 5 4 5 5 7 8 9 10 11 12 12 12 13 13 13 14 14 14 15 14 14 15 13 13 18 19 25 38 43 41 40 40 38 38 38 39 40 42 47 50 50 49 51 51 49
26 27 27 27 28 28 29 29 30 30 29 27 25 23 23 23 23 23 23 23 23 24 24 24 23 22 22 21 20 18 17 16 15 13 11 10 8 7 6 5 4 5 5 6 8 9 10 11 12 12 13 13 13 14 13 14 15 15 16 16 15 16 17 15 17 20 23 31 40 42 40 40 41 40 38 40 42 42 45 47 48 48 49 50 50
26 27 28 28 28 28 29 29 29 28 27 25 24 24 25 25 25 24 26 26 27 27 26 25 24 23 22 21 19 18 16 15 14 13 11 9 7 6 5 4 4 5 5 7 8 9 10 11 12 12 13 13 13 14 15 15 16 17 16 18 18 17 19 19 19 20 21 26 34 41 40 38 39 40 37 37 42 44 44 45 47 47 49 53 53
25 26 27 27 27 27 27 28 27 27 26 26 26 27 27 27 27 27 28 29 29 28 27 25 24 23 22 20 19 18 16 15 13 12 10 8 6 5 4 3 3 4 5 7 8 9 10 10 11 12 12 13 13 14 15 16 16 18 18 18 19 19 20 20 20 21 22 24 28 34 38 36 36 39 39 37 39 42 41 42 46 47 49 54 57
24 24 25 26 26 27 27 27 27 27 27 28 28 28 28 29 29 30 30 30 30 29 27 26 24 22 21 20 18 17 16 14 12 10 9 7 5 4 3 2 3 4 5 6 7 8 9 9 10 11 11 12 13 13 14 16 16 16 16 17 18 19 20 21 21 21 22 24 25 27 32 34 33 35 39 40 39 38 37 37 40 45 48 51 55
25 25 26 26 27 27 27 28 28 28 29 29 29 30 30 31 31 31 31 30 30 28 28 26 24 22 21 19 18 16 15 13 11 10 8 6 4 3 2 2 3 4 5 6 7 7 8 9 9 10 10 10 11 12 12 13 14 15 15 16 18 19 20 21 21 22 23 23 23 25 29 33 32 33 38 41 38 37 39 38 37 41 46 49 52
26 26 27 27 28 29 29 29 29 29 30 31 31 32 32 33 32 32 31 30 29 28 27 25 24 23 21 19 18 16 14 12 11 8 7 5 3 2 2 3 3 5 5 6 7 7 8 9 9 10 10 9 10 11 10 10 12 14 16 17 18 19 21 21 21 23 24 24 24 25 27 30 30 31 34 36 35 37 43 43 39 41 46 47 49
27 27 28 28 29 30 30 30 30 30 31 32 33 34 34 34 33 33 31 30 29 28 26 25 23 22 21 19 17 16 13 11 9 7 5 4 2 2 2 3 4 5 5 6 7 7 8 9 9 10 9 10 11 11 11 12 12 12 14 16 18 19 21 23 23 23 24 25 26 24 24 27 31 31 31 35 38 40 43 42 39 41 42 37 39
28 28 28 29 30 30 30 30 31 32 33 34 35 35 35 35 34 33 32 30 29 27 26 25 23 21 20 19 17 15 13 10 8 6 4 3 2 2 3 4 5 5 6 6 7 7 8 9 10 10 10 11 12 12 14 15 13 13 14 14 15 17 19 22 24 24 24 25 27 25 23 26 32 33 32 35 39 40 42 41 37 35 33 26 25
28 28 28 29 30 30 31 31 32 33 35 35 35 36 35 35 34 33 31 30 28 27 26 25 23 21 20 18 16 14 12 9 7 5 3 3 2 2 3 4 4 5 6 6 7 8 9 9 10 11 12 12 13 15 18 18 15 14 15 15 15 15 16 18 21 24 25 26 29 29 26 27 32 34 34 35 37 40 43 41 36 33 32 27 24
28 28 28 29 30 31 32 33 34 35 35 36 36 36 35 35 34 32 31 30 28 27 26 24 22 21 19 18 16 13 11 9 7 4 3 2 2 2 3 4 4 5 6 6 8 9 9 10 11 12 12 13 14 17 19 20 19 17 17 17 17 17 16 16 17 19 22 24 27 29 28 29 32 35 36 36 37 39 38 36 35 34 35 35 33
28 28 29 30 31 32 33 34 35 35 35 36 36 36 35 34 33 32 31 30 28 27 25 23 22 20 18 16 15 13 11 9 6 4 3 2 1 2 3 4 4 5 6 7 8 9 10 11 12 12 13 14 17 19 20 20 20 20 20 19 19 18 17 17 16 16 17 20 23 28 30 31 32 35 37 36 35 36 35 36 37 37 38 40 41
29 29 30 31 33 34 34 35 35 35 35 36 36 35 35 34 33 32 30 29 28 27 25 23 22 19 17 15 14 12 10 8 6 3 2 1 1 2 3 4 4 5 6 8 8 9 10 11 11 12 14 16 17 17 19 20 21 22 22 21 20 19 19 19 17 15 17 19 22 26 30 31 33 34 34 33 33 34 36 37 37 36 36 38 39
29 30 32 33 35 36 36 36 36 36 36 36 36 35 35 34 33 32 31 29 27 26 24 22 21 19 17 14 13 12 10 8 6 3 2 0 1 2 3 4 5 6 7 8 8 9 9 10 11 12 14 16 16 16 17 19 21 23 24 24 23 23 22 21 17 16 19 21 23 26 29 30 30 29 29 30 30 32 33 32 31 31 31 29 28
30 31 32 34 36 37 37 38 38 38 38 37 37 36 35 35 33 32 31 30 27 25 23 21 20 18 16 14 12 11 10 8 6 3 2 1 1 2 3 5 5 6 8 9 9 9 9 10 11 12 14 15 15 16 17 18 21 23 25 27 28 28 27 25 22 20 19 21 23 25 26 25 26 27 28 26 24 26 28 27 28 30 27 21 18
30 31 33 35 36 37 38 39 39 40 39 39 38 37 36 35 33 32 31 30 28 25 23 21 19 17 15 14 12 10 10 8 6 3 2 2 1 2 4 5 6 7 9 10 10 10 9 10 11 11 12 14 15 16 16 17 20 22 24 27 30 31 31 31 32 31 29 27 27 26 24 24 26 28 27 23 21 23 24 24 27 29 26 21 19
32 33 34 35 37 38 38 39 40 40 40 39 38 37 36 34 33 31 30 29 27 25 23 21 19 17 15 13 12 10 9 8 6 3 2 2 2 3 4 5 6 7 9 10 10 10 9 10 11 9 10 13 14 14 14 16 18 19 20 24 27 30 32 33 35 36 36 36 35 34 34 33 31 30 28 27 27 26 23 24 27 28 26 25 25
34 34 34 35 37 38 38 39 39 40 39 38 37 36 35 34 33 31 29 28 26 24 22 20 19 17 15 13 12 10 9 7 6 4 2 1 3 3 4 5 6 8 9 9 9 9 9 10 10 9 10 13 13 12 13 14 15 16 17 20 23 27 30 32 31 31 32 35 36 36 37 37 34 32 32 33 33 31 29 29 31 30 29 29 29
34 34 35 36 37 37 38 38 38 38 38 37 36 35 34 34 33 31 30 28 26 25 22 20 18 17 15 13 11 10 8 7 6 4 3 1 3 4 4 5 6 7 8 8 8 9 8 9 9 9 10 12 11 11 12 12 12 13 15 16 19 22 26 28 29 29 30 32 34 35 36 37 37 37 36 35 35 35 36 36 35 34 33 32 31
33 34 35 35 36 37 37 37 38 38 37 37 36 35 33 32 32 31 29 28 26 25 23 20 19 17 15 13 11 10 9 7 6 5 3 2 2 3 4 4 5 6 7 7 7 7 7 7 8 9 10 10 9 10 11 10 10 11 13 14 17 19 21 23 25 27 29 31 32 34 35 36 38 39 38 38 37 37 38 39 38 36 35 33 31
32 33 34 35 36 37 37 37 37 37 37 36 36 35 33 32 31 30 29 28 26 25 23 21 19 17 16 14 12 10 9 8 7 6 4 3 2 2 2 3 3 4 6 6 6 6 6 6 8 9 9 9 9 9 9 9 10 10 11 13 16 18 20 22 24 25 27 28 30 31 33 34 35 37 38 38 39 38 37 37 38 38 36 35 33
31 32 33 34 35 35 36 36 36 36 36 35 35 34 33 32 31 30 29 28 27 26 24 22 20 18 17 15 13 11 10 9 8 7 5 4 3 2 0 1 2 3 4 4 4 4 4 6 8 8 8 9 9 9 9 10 10 9 11 13 17 19 22 24 24 24 25 26 28 30 31 32 32 34 36 37 37 36 35 35 35 37 36 34 33
31 32 32 33 35 35 35 35 35 35 35 36 36 35 35 33 32 30 29 28 28 27 25 23 21 19 17 15 13 12 11 10 9 7 6 5 4 3 1 1 1 1 2 3 3 2 4 6 7 7 7 8 8 9 11 12 11 12 13 16 19 22 23 24 24 24 25 26 27 29 31 32 32 33 33 33 32 32 33 34 35 36 36 35 36
31 32 32 33 34 34 34 34 34 34 35 35 35 35 36 35 33 32 30 29 27 26 26 24 22 19 17 16 15 14 12 11 9 8 7 6 5 3 2 0 0 1 1 1 1 2 4 5 6 6 6 7 8 10 12 13 14 15 17 19 21 22 23 24 24 24 25 26 27 28 31 33 33 32 29 28 29 29 31 34 36 37 37 37 36
31 32 33 33 33 34 35 35 35 35 35 34 34 34 34 34 34 33 32 30 28 27 26 25 23 21 19 18 17 15 13 12 10 9 7 6 4 3 2 1 1 1 1 2 3 4 5 5 5 5 6 7 8 10 12 13 15 17 18 20 21 22 22 22 22 22 23 25 27 29 30 31 31 30 29 27 27 27 28 31 34 35 36 35 32
31 32 32 33 34 34 35 36 36 36 35 34 34 34 34 34 34 33 33 32 30 29 28 27 25 23 22 21 19 17 15 13 11 9 8 6 4 3 2 1 1 1 2 3 5 5 5 4 4 5 6 7 8 10 12 13 16 17 19 20 21 21 22 22 21 22 22 23 25 27 29 30 29 30 30 28 27 27 28 30 32 33 34 32 28
29 30 31 32 33 33 33 34 35 36 35 34 33 33 33 33 33 32 31 30 29 28 27 26 24 23 22 21 20 18 17 14 11 9 8 6 4 3 2 2 2 2 3 4 5 5 5 5 5 5 7 9 11 13 14 15 17 18 19 20 21 21 22 23 23 24 24 23 25 26 27 29 29 29 29 28 27 27 29 30 32 32 31 28 25
28 29 30 31 32 33 33 33 34 35 35 34 32 30 29 29 29 29 28 28 27 25 23 22 22 22 22 21 18 16 14 13 11 10 9 8 6 5 4 3 3 3 3 5 5 5 6 6 6 7 10 12 13 15 16 17 19 19 20 21 21 22 23 23 23 25 25 24 24 26 27 28 29 29 29 29 29 29 29 29 30 31 29 26 24
29 29 31 32 33 34 34 34 34 34 33 33 32 29 27 25 24 24 25 25 24 23 22 20 20 21 21 20 18 15 14 13 12 11 11 10 9 7 6 5 4 4 4 4 5 6 6 6 7 8 10 12 13 14 16 17 19 20 21 21 21 21 22 24 24 25 25 24 25 26 27 28 28 29 29 28 28 30 31 30 29 29 28 26 23
30 30 32 33 33 33 33 33 33 32 32 31 31 30 29 26 22 20 21 21 21 21 21 21 20 21 20 19 17 16 15 14 14 13 13 12 9 8 7 6 5 5 5 5 6 7 7 6 7 8 9 11 12 13 15 16 17 19 20 21 22 21 22 23 24 24 24 24 25 27 28 28 28 28 28 27 27 28 30 30 29 28 27 26 24
31 31 32 33 33 33 33 33 34 34 35 34 33 32 32 31 28 23 19 17 17 18 18 18 19 19 19 18 17 16 15 14 15 14 13 11 10 8 7 7 6 6 6 6 6 7 6 5 6 7 8 10 11 12 13 15 16 18 19 20 21 22 22 22 23 24 24 24 25 27 28 29 29 29 28 27 26 26 28 28 29 28 26 24 23
30 30 32 33 34 34 35 35 35 35 36 36 35 34 34 33 31 29 25 21 18 18 17 18 17 17 17 17 17 16 15 15 16 15 13 12 11 10 9 8 8 7 7 7 8 7 6 5 5 5 6 8 9 11 12 13 15 16 18 19 20 21 22 22 23 24 25 25 26 27 27 28 29 29 28 28 27 25 26 27 27 28 26 24 23
28 28 29 31 33 33 33 34 34 34 35 35 34 34 34 32 31 32 31 29 27 25 23 22 20 19 18 18 17 17 16 16 16 16 14 13 13 11 10 10 9 9 8 9 8 8 6 4 4 5 6 7 8 10 11 12 13 15 17 18 20 21 22 23 23 24 25 26 26 27 27 28 28 28 27 27 27 26 26 26 26 26 26 24 23
27 26 27 28 30 31 31 31 32 33 36 36 34 33 33 32 32 32 31 29 28 27 27 26 24 21 21 20 19 18 17 16 17 16 15 14 14 13 12 11 10 10 10 10 9 8 6 5 5 5 5 6 7 9 10 11 12 13 15 17 19 20 21 21 22 23 25 26 26 26 27 28 29 28 27 26 25 25 25 26 26 26 25 24 23
27 28 28 28 29 30 30 30 31 32 34 34 33 32 31 31 31 31 30 29 28 27 27 28 27 25 24 23 22 20 18 17 16 15 14 15 15 14 13 12 11 12 12 11 10 8 7 6 6 6 6 7 7 8 9 10 11 13 14 15 16 18 19 19 20 22 24 25 26 27 27 28 28 29 27 26 25 25 24 25 26 26 25 24 23
27 28 28 27 28 28 29 29 29 31 32 33 32 32 31 31 30 30 30 30 29 28 28 29 30 30 30 28 25 22 19 17 16 16 17 18 17 15 14 13 13 13 13 12 11 10 8 7 8 8 8 8 8 9 10 10 11 12 13 14 15 16 17 18 19 21 23 25 27 28 28 28 28 28 27 25 24 24 24 25 26 25 24 24 23
27 27 26 26 26 27 27 28 28 30 31 33 33 32 31 31 31 31 31 29 29 29 29 30 32 33 32 29 27 26 24 23 22 22 22 21 18 16 15 15 14 14 13 12 12 11 10 9 9 9 9 9 10 10 10 10 11 12 13 13 15 15 16 17 19 20 22 25 27 28 28 28 28 27 26 24 23 23 23 24 25 24 24 23 22
26 26 26 26 25 26 26 26 27 29 31 32 33 32 32 32 32 32 31 30 30 31 31 32 33 34 32 30 29 29 29 29 27 25 24 22 19 18 17 17 16 15 14 13 12 12 11 11 11 11 11 11 11 11 11 11 12 12 13 13 14 15 15 15 17 19 21 24 27 28 29 29 28 27 26 23 21 21 22 24 25 24 23 21 19
24 25 26 26 26 26 25 26 28 29 30 30 31 32 32 32 32 31 31 31 31 31 31 32 33 32 31 30 30 29 29 29 27 25 23 22 20 19 19 18 17 16 15 14 13 13 13 13 12 12 12 12 12 13 13 12 12 13 13 13 14 15 15 15 15 17 20 23 26 28 29 29 28 26 25 24 22 21 22 24 25 25 22 19 16
23 24 24 25 25 26 26 28 29 28 28 29 30 32 33 32 31 31 31 31 31 30 30 31 32 31 30 30 29 29 28 28 26 25 24 23 22 21 21 20 18 17 15 14 14 14 15 15 14 13 13 14 14 14 14 14 14 14 14 14 14 15 15 15 15 16 18 21 25 27 28 28 27 26 25 24 23 22 22 24 25 24 21 17 14
22 22 23 24 25 26 27 28 27 28 29 30 30 31 31 31 31 30 30 31 31 31 31 31 32 31 30 30 30 29 29 28 27 26 25 24 23 22 22 21 19 17 16 15 15 16 16 16 15 15 15 15 15 15 16 16 15 15 15 15 15 15 15 15 14 14 16 20 23 26 27 27 27 27 26 25 23 22 22 23 24 23 20 16 13
19 21 22 23 24 25 26 27 27 28 28 28 28 29 29 29 30 30 30 31 32 32 32 33 33 32 31 31 31 31 30 30 30 29 27 26 25 23 22 20 19 18 18 17 17 17 18 18 17 16 16 16 16 17 17 17 16 16 15 15 15 15 15 14 13 14 15 18 22 24 26 27 27 27 26 25 23 22 23 23 23 22 19 15 12
18 19 21 23 24 25 26 26 27 27 27 27 28 29 29 30 31 32 32 33 34 34 34 33 32 32 32 33 33 33 33 32 31 29 28 26 25 24 22 20 20 20 20 19 18 19 20 19 18 17 16 16 16 17 18 18 17 16 16 16 16 16 15 14 13 13 14 16 19 23 25 27 27 27 27 25 23 21 22 22 21 20 18 15 11
16 18 20 22 23 25 25 26 26 27 27 28 29 29 30 31 33 33 33 34 34 33 33 32 31 31 32 33 33 34 33 32 30 28 27 26 25 23 22 21 21 21 21 20 19 20 20 20 19 18 17 16 17 17 18 18 17 17 17 17 17 17 15 14 13 13 13 14 17 21 23 25 26 26 26 25 22 21 21 20 19 18 16 13 10
16 18 20 22 23 24 25 25 26 26 27 28 29 30 30 31 32 33 33 33 33 32 32 31 31 32 32 33 33 33 32 31 29 28 26 25 24 23 22 22 22 22 21 20 20 21 20 20 20 19 18 17 17 18 18 17 17 17 17 17 17 17 16 15 15 14 13 13 16 19 21 23 24 25 25 23 21 20 20 19 18 16 14 12 9
16 18 20 22 23 24 25 25 26 27 28 29 29 30 30 30 31 32 32 33 34 34 34 33 33 33 33 33 32 31 30 29 28 27 26 25 24 23 22 22 22 22 22 21 21 21 20 20 20 19 18 18 18 18 18 17 17 17 17 16 16 17 17 16 16 16 14 13 15 17 19 21 22 23 23 22 20 19 18 18 17 15 13 11 9
17 19 21 22 24 25 26 26 26 27 28 28 29 30 30 29 30 32 32 33 35 36 35 34 34 34 33 33 32 31 31 30 29 29 27 26 24 23 22 22 22 22 22 22 21 20 19 19 19 19 18 18 18 18 18 17 17 17 17 16 16 17 17 17 17 16 15 14 14 15 18 20 20 20 20 20 19 17 16 16 15 14 13 11 9
18 20 21 23 24 25 26 26 26 27 27 27 28 29 29 29 30 32 32 33 35 35 35 35 35 35 35 34 34 33 32 32 31 29 27 26 24 23 22 22 23 23 22 21 20 19 19 19 18 18 17 17 17 17 17 17 18 18 17 17 17 16 16 16 17 16 15 14 14 15 17 19 19 18 18 18 17 16 15 14 14 13 13 12 10
19 21 22 24 25 25 25 26 26 27 27 27 28 28 29 29 31 31 32 33 36 37 37 37 37 37 36 35 34 32 32 31 30 28 26 25 24 23 23 23 23 22 21 21 20 19 18 18 18 17 17 17 17 17 17 17 17 18 18 17 17 16 16 16 16 16 16 16 15 15 16 18 18 17 17 16 16 16 15 14 13 12 12 12 11
Wind_Direction
199 199 198 199 199 197 196 198 197 196 192 189 190 189 188 191 198 203 202 197 194 189 181 175 170 163 156 152 148 144 142 139 137 141 141 137 132 125 119 115 106 96 89 75 57 40 27 22 14 8 6 4 2 2 2 2 4 3 6 0 355 358 338 311 285 294 307 314 316 317 323 327 328 330 331 330 331 332 331 330 329 328 326 325 324
192 193 192 191 191 190 189 189 188 187 185 184 186 187 189 195 201 201 194 189 185 180 174 168 163 158 154 151 148 146 146 144 143 145 143 137 130 123 120 116 107 97 80 52 35 24 13 10 8 4 5 3 2 5 5 3 3 360 1 2 352 353 350 323 306 297 305 313 317 319 324 327 326 328 331 330 329 330 330 329 329 328 327 326 324
188 187 186 185 185 184 183 183 183 184 183 184 185 188 192 196 196 192 185 179 175 172 169 164 160 158 155 152 151 150 149 147 144 143 140 137 132 128 124 117 101 76 50 31 18 10 5 4 5 4 5 6 4 5 5 0 359 357 355 358 352 346 347 334 317 306 303 310 316 320 323 326 326 327 329 329 328 329 327 327 328 328 327 326 325
183 181 180 181 181 181 181 181 182 183 183 184 187 190 192 190 186 184 179 172 168 167 165 162 160 159 157 155 154 152 151 148 145 145 143 140 136 129 119 100 74 48 28 16 7 2 2 3 6 5 3 6 5 359 360 358 354 355 353 351 351 344 339 336 323 311 304 306 312 317 320 322 323 325 328 329 328 328 327 325 326 326 326 325 324
178 178 178 178 179 179 180 180 181 183 184 187 190 189 187 183 179 177 173 168 166 164 163 162 162 161 159 157 155 152 151 150 150 149 146 142 137 125 107 83 54 31 12 6 3 1 4 5 5 5 2 1 1 354 353 355 351 351 352 347 345 342 336 333 327 318 307 301 306 313 317 320 321 323 327 329 327 327 327 326 326 327 326 325 325
178 179 181 181 180 181 182 183 184 186 187 188 187 184 181 177 174 172 170 167 165 163 162 161 162 162 159 157 156 154 153 154 155 153 148 143 135 119 99 76 38 18 9 6 6 5 7 8 4 5 4 359 358 354 350 351 349 347 347 344 341 338 334 331 328 321 311 303 303 309 314 318 320 321 325 328 326 325 326 326 326 327 327 326 325
185 186 187 186 186 186 186 186 187 187 186 184 181 179 176 173 170 169 169 167 164 163 162 161 162 162 159 157 157 157 156 157 156 152 147 142 133 123 101 74 33 17 13 10 13 11 7 10 8 6 7 2 356 353 350 347 344 343 342 341 340 338 334 331 327 321 313 308 306 306 310 314 317 318 322 327 327 325 326 326 323 324 326 324 322
192 192 191 190 189 188 187 186 186 184 183 180 177 174 171 170 169 167 167 167 165 164 163 162 161 160 159 158 158 158 159 157 156 152 148 144 139 133 98 64 36 24 21 14 15 17 11 11 12 8 6 5 357 351 348 343 339 341 343 343 340 336 332 328 324 320 314 310 308 309 312 314 316 320 323 328 328 326 327 326 320 319 322 321 320
193 192 192 191 189 187 185 184 183 181 180 176 174 172 169 168 168 167 167 167 165 164 165 164 163 161 160 160 158 159 161 158 155 155 152 147 139 117 64 45 37 25 22 18 14 18 18 13 13 11 7 3 358 352 350 352 347 343 343 342 338 334 328 324 322 319 316 313 311 315 316 314 317 322 324 325 324 321 322 322 318 317 319 318 318
191 189 189 187 185 183 182 181 180 179 177 174 172 170 168 168 167 166 166 166 165 165 165 165 165 164 163 161 160 161 162 159 158 158 153 144 124 82 41 29 30 23 17 19 18 19 21 17 12 11 6 360 359 357 358 3 359 345 339 337 334 330 325 321 320 319 317 314 312 317 318 313 315 319 318 318 319 318 318 318 316 316 318 316 315
186 185 184 184 183 181 181 179 178 176 174 172 171 169 168 168 167 166 166 166 166 166 166 166 166 166 164 162 162 162 160 158 159 159 151 134 104 64 45 27 21 20 15 16 22 21 20 19 14 8 4 2 0 0 3 4 357 342 334 329 325 323 320 317 316 315 315 312 310 312 312 307 310 314 315 316 317 316 316 315 314 315 316 315 312
184 184 184 183 182 181 180 178 176 175 173 172 171 169 168 167 167 167 166 166 166 166 167 167 165 165 165 163 162 162 158 157 161 162 148 126 93 50 43 30 19 20 21 20 23 22 19 18 15 8 6 7 3 3 5 1 349 335 328 324 320 316 313 311 310 310 311 310 309 309 308 307 309 312 315 316 316 315 313 312 313 316 315 311 306
185 185 185 184 183 181 179 177 175 174 173 172 170 169 169 168 168 168 167 166 167 167 167 167 165 164 166 165 162 160 157 156 161 164 147 120 84 49 36 30 28 24 26 29 23 21 19 15 13 13 11 10 8 8 5 354 341 331 327 325 323 320 314 308 305 303 304 304 303 303 306 309 308 309 313 315 312 310 310 311 315 316 312 307 304
186 186 185 185 184 181 179 177 175 173 172 171 171 170 170 169 168 169 168 168 168 168 168 167 166 165 167 167 163 159 157 156 160 167 152 121 62 44 32 29 35 32 33 37 28 23 22 15 13 14 13 14 14 9 358 345 335 330 329 329 330 328 322 318 315 309 305 303 300 301 305 308 306 306 310 313 311 310 311 312 312 311 307 305 306
187 187 186 185 184 182 180 177 175 173 173 172 172 171 171 171 170 170 170 170 171 170 169 169 167 166 167 168 164 159 156 155 158 174 175 137 32 31 35 32 39 43 44 40 33 28 24 19 20 18 16 20 17 2 347 337 331 331 332 333 333 329 329 331 329 317 311 308 302 302 304 306 307 308 311 315 314 312 312 311 309 310 309 308 309
187 188 187 185 184 183 180 178 176 175 174 174 173 173 173 172 172 171 171 171 171 170 170 170 170 168 166 168 168 160 155 154 160 183 211 175 22 21 37 42 44 48 49 43 37 34 27 23 24 22 21 21 9 351 343 337 334 335 336 334 333 331 334 340 333 316 311 310 307 308 309 309 309 311 314 316 315 315 319 319 318 319 316 311 311
189 188 187 186 185 183 182 180 178 176 176 176 176 175 175 174 174 174 173 171 170 170 171 169 169 171 168 168 170 163 155 155 165 187 230 278 6 21 34 43 44 41 44 44 38 35 33 28 27 24 20 14 357 345 344 341 339 340 337 334 335 336 338 340 332 319 311 308 310 315 314 311 311 314 318 319 321 327 330 327 324 323 320 315 314
191 189 189 188 186 185 184 183 181 179 178 179 178 177 177 176 175 176 176 174 171 171 172 170 167 170 170 169 170 167 161 159 165 183 234 282 342 29 33 37 40 34 36 40 37 35 35 32 31 25 11 0 349 344 347 346 343 341 337 336 338 337 338 337 332 329 328 326 326 325 322 321 323 326 329 328 329 333 331 324 322 321 317 314 312
194 192 191 190 188 187 186 185 184 182 181 181 180 179 178 177 176 177 177 176 173 171 173 173 169 168 170 170 170 170 166 162 167 183 220 287 336 21 25 24 30 29 30 34 33 34 34 31 33 25 359 349 344 343 349 350 343 338 340 342 339 335 334 332 330 331 333 335 336 335 336 338 338 337 335 331 332 336 333 327 325 321 314 310 309
196 195 193 192 190 189 188 187 186 184 183 182 181 181 180 178 177 176 176 176 175 172 173 175 172 170 170 171 171 171 171 170 172 178 185 288 326 358 15 12 17 25 28 28 27 30 32 27 27 16 351 342 341 344 353 351 340 340 349 348 337 330 328 328 330 332 331 331 335 337 339 340 339 335 334 334 337 339 337 334 331 325 318 312 308
196 194 193 192 191 190 189 188 188 186 185 184 182 182 181 180 179 177 176 176 175 173 173 174 174 172 170 172 174 174 176 180 181 177 170 213 310 336 4 10 12 21 26 24 22 25 25 18 13 1 343 338 343 350 353 348 342 348 353 344 332 327 326 328 333 336 335 334 337 339 339 339 336 335 336 337 339 338 337 336 335 331 325 317 311
195 193 193 192 191 191 190 189 189 188 187 185 183 181 180 180 180 179 178 177 176 175 175 175 175 174 172 175 179 179 183 186 184 184 185 197 278 324 1 13 9 13 21 22 20 20 18 7 356 344 336 341 354 359 355 352 354 355 349 338 332 331 331 334 339 340 340 340 339 339 338 337 335 335 336 337 337 337 337 336 335 333 330 324 319
194 192 192 191 191 191 190 189 190 189 187 186 184 181 179 179 180 180 180 179 177 177 177 177 177 176 174 177 181 184 190 192 188 191 197 202 235 301 356 17 13 14 15 15 16 19 10 349 337 334 338 353 6 8 6 9 9 360 348 340 340 343 347 349 349 345 343 342 340 337 336 335 334 333 334 334 335 335 335 334 333 334 332 328 326
192 191 191 190 190 190 189 189 190 189 187 186 184 182 180 180 180 181 182 182 180 180 180 181 181 180 178 180 185 189 193 195 195 196 203 212 228 250 316 40 36 22 9 9 20 20 350 328 328 336 350 4 12 16 22 27 21 8 356 351 354 360 2 359 354 349 344 342 339 335 333 333 332 330 330 331 332 332 332 332 333 334 333 331 329
191 190 190 190 189 189 189 189 189 189 187 187 186 184 183 181 181 181 183 184 184 183 183 184 185 185 184 186 191 196 197 197 198 199 205 219 228 225 204 79 49 14 358 18 33 355 317 322 332 344 357 8 16 23 28 31 27 16 8 5 7 9 8 2 356 351 345 342 338 333 330 331 330 328 329 330 330 331 332 333 335 336 336 335 333
190 189 190 190 189 189 187 187 188 188 187 188 189 188 187 185 184 184 184 186 187 188 187 186 187 188 190 193 198 200 199 199 201 205 212 219 220 217 216 193 94 316 333 19 39 345 336 339 341 349 6 17 23 27 28 28 26 19 13 12 13 11 9 4 357 350 344 338 334 331 330 330 330 330 332 331 330 333 336 336 335 336 338 337 335
189 189 189 189 189 188 187 186 186 186 187 187 188 189 189 189 188 187 186 187 189 190 190 189 190 192 194 197 199 200 201 202 205 209 217 220 219 221 228 228 241 290 331 355 8 7 358 343 339 358 19 27 28 30 28 25 23 19 15 14 13 12 10 5 357 350 343 336 333 331 331 332 333 333 334 334 333 335 337 337 335 334 336 337 334
190 189 189 189 188 188 188 187 186 185 186 188 189 189 190 191 192 192 193 193 193 194 194 196 198 201 201 200 199 198 200 205 209 214 219 220 222 226 228 250 279 325 354 347 354 359 345 327 336 359 13 19 20 23 25 23 21 18 14 12 12 11 8 4 358 352 345 338 334 333 333 334 335 335 335 335 335 336 338 338 336 333 334 336 334
191 190 189 189 188 187 187 187 187 186 187 188 191 192 193 194 195 196 198 199 200 202 203 205 206 208 208 207 206 204 204 206 209 216 219 213 212 220 228 256 285 326 345 333 338 340 317 310 328 347 357 7 13 15 16 17 16 15 13 10 9 8 6 2 356 351 347 342 338 335 333 334 335 336 337 335 333 335 338 340 338 335 334 336 334
189 190 190 190 189 188 188 188 189 189 188 189 190 191 193 195 198 199 201 202 203 207 210 212 214 213 210 210 210 211 211 208 208 213 211 201 197 204 211 227 255 288 311 315 319 313 299 306 331 351 1 7 10 10 10 8 6 6 7 7 6 4 2 0 355 350 348 345 340 336 335 335 335 336 336 334 332 333 338 340 340 337 336 336 334
189 191 192 192 192 191 191 190 190 190 190 190 189 187 187 191 197 201 203 202 204 207 210 212 213 211 209 209 209 208 207 206 208 211 206 197 197 204 209 215 233 264 289 298 297 292 293 310 337 355 3 7 7 6 4 3 0 359 359 1 2 1 358 357 354 351 348 345 340 338 337 337 336 336 335 332 331 332 336 341 341 338 336 336 333
195 195 195 196 195 194 193 192 191 191 190 190 188 186 184 183 186 194 201 203 205 208 209 210 208 205 206 210 211 209 206 204 206 208 204 200 201 206 210 217 232 255 273 275 274 282 294 317 342 356 1 3 3 1 359 358 357 356 354 353 354 356 355 354 352 350 348 344 341 339 339 338 337 335 333 332 331 331 334 338 340 338 336 335 335
203 201 199 198 196 196 196 195 194 194 192 190 189 188 187 184 182 183 188 196 205 210 210 209 207 205 205 208 210 211 207 201 201 204 204 203 205 206 209 218 232 248 260 262 263 273 289 316 341 354 358 358 356 355 356 356 354 353 351 348 348 350 353 353 352 350 348 345 341 340 340 338 337 335 333 333 333 331 332 335 337 337 336 334 334
209 207 205 202 200 199 200 199 199 198 195 193 191 190 191 191 187 182 178 180 190 200 205 206 204 204 207 208 207 206 202 198 201 205 204 204 208 208 208 219 232 242 248 254 260 268 281 306 332 345 351 352 349 347 349 351 350 349 349 347 347 349 351 352 353 350 347 344 343 341 340 339 338 337 334 334 334 332 332 334 337 338 336 334 333
212 212 211 209 206 204 204 204 203 201 198 196 195 195 195 194 193 190 187 187 189 192 196 200 200 200 203 205 204 201 198 199 206 210 207 208 210 207 206 216 229 237 242 248 254 261 273 294 315 330 338 340 339 339 340 344 347 347 347 346 346 347 349 351 350 348 345 344 343 342 340 339 339 338 335 334 333 332 331 333 336 338 336 334 334
214 215 215 215 213 211 210 209 209 206 203 200 200 200 199 198 198 197 197 197 197 196 197 198 198 198 202 205 206 203 197 200 210 213 209 210 212 208 208 214 222 228 237 245 250 256 269 284 296 310 320 321 325 329 332 336 340 343 345 345 344 344 347 348 345 343 343 343 343 341 340 338 339 340 338 334 333 332 332 333 336 337 337 336 334
217 218 219 219 218 217 216 216 215 211 207 204 203 203 203 203 203 202 201 202 203 202 201 200 198 198 201 204 204 201 197 201 211 213 209 213 216 213 212 216 219 223 231 239 245 251 260 270 281 292 301 305 311 318 322 327 333 337 341 343 341 342 344 344 341 341 342 342 342 341 340 338 339 340 339 335 332 332 333 335 337 337 337 337 336
223 223 223 223 223 220 220 220 218 214 211 209 207 207 207 206 206 206 206 207 206 205 205 203 201 202 205 204 202 198 195 197 203 206 207 215 220 219 216 217 219 222 228 234 239 245 251 259 271 281 287 293 300 307 312 320 326 331 335 338 338 339 342 341 341 342 343 342 342 341 339 338 339 341 340 335 333 332 334 336 338 337 337 337 338
227 226 226 227 227 225 225 223 220 217 215 213 212 211 210 210 210 209 209 209 208 208 207 206 206 208 209 207 203 198 195 197 203 207 211 218 224 224 222 222 221 223 227 232 238 245 251 255 263 273 279 285 293 299 304 312 319 325 331 333 333 336 339 339 340 341 341 341 341 340 339 338 339 341 340 337 333 332 334 336 338 337 336 336 336
230 229 229 229 229 229 229 226 224 222 219 217 216 214 214 214 214 213 212 211 210 210 210 209 211 213 213 210 206 202 202 205 210 213 216 221 225 226 226 227 227 227 230 233 238 246 253 255 260 268 274 280 286 292 298 305 312 318 325 328 329 331 333 336 338 338 338 338 339 338 338 339 339 340 340 337 333 332 333 335 337 337 337 337 335
235 232 231 230 230 230 229 228 228 226 224 222 221 219 219 219 219 217 216 215 214 214 214 214 216 216 215 213 210 209 211 215 218 220 221 223 227 230 231 232 232 232 234 237 240 247 253 257 261 266 271 276 282 287 291 298 306 312 318 322 323 326 329 333 337 336 335 336 336 336 337 339 339 338 337 335 334 333 334 335 337 339 340 340 337
239 236 233 232 231 230 230 230 231 229 228 228 227 226 225 224 223 221 220 219 218 217 217 217 218 218 216 214 212 213 217 221 222 223 224 225 227 230 232 234 236 237 238 241 244 249 255 259 263 267 271 275 280 284 287 293 300 305 310 314 317 320 325 330 333 333 332 332 333 334 335 336 336 335 335 335 335 334 334 336 338 341 342 342 338
242 239 237 235 234 233 234 234 233 232 231 230 231 231 229 227 226 225 224 223 221 220 220 220 220 218 216 213 212 214 218 221 222 222 224 225 226 228 231 234 237 240 243 246 249 252 257 261 265 269 273 276 280 283 285 290 294 297 301 306 309 314 321 325 326 327 328 328 329 330 332 334 335 334 335 335 335 334 333 335 338 341 343 341 337
245 242 240 238 237 237 238 237 236 236 235 235 235 235 233 231 229 228 227 227 226 224 224 225 223 219 214 211 210 213 218 221 222 223 223 223 225 227 230 233 237 241 246 250 253 256 259 262 266 270 273 276 279 281 282 284 287 290 294 298 300 305 313 318 320 322 324 324 324 326 329 332 333 333 334 335 334 332 333 335 337 339 341 339 335
248 244 242 240 239 239 239 239 238 238 238 237 237 237 235 234 232 231 231 230 230 228 228 227 225 220 216 213 213 215 219 222 224 225 223 222 224 226 229 234 240 245 249 252 255 257 259 262 265 269 272 275 276 276 277 279 281 284 287 289 292 297 305 311 315 318 318 317 319 322 326 329 332 333 334 335 334 330 331 333 335 336 338 336 332
253 248 245 243 241 240 240 240 240 239 238 237 238 238 237 236 235 234 233 233 232 231 230 228 225 221 218 217 218 220 222 224 227 227 225 223 224 227 232 238 243 247 250 253 255 256 258 261 264 268 271 274 274 274 275 277 278 280 282 284 286 291 296 302 305 306 308 312 318 320 321 326 331 333 333 335 334 331 331 334 334 333 333 331 324
256 252 249 247 245 244 243 243 242 241 240 239 239 240 240 239 238 237 236 235 233 232 231 229 226 223 221 221 223 225 226 228 229 228 227 227 229 232 236 240 244 247 251 252 253 255 258 260 264 267 270 274 275 276 276 278 278 279 281 282 283 286 289 292 293 295 301 311 316 316 316 322 328 331 332 334 334 332 332 333 333 331 329 325 315
258 254 252 250 247 246 245 244 243 242 242 242 242 242 243 242 240 238 236 234 232 231 229 228 227 226 225 224 226 228 230 231 231 230 230 231 234 236 238 241 244 247 250 252 253 255 258 260 264 267 270 273 275 277 279 280 280 280 282 282 282 283 284 285 286 290 298 306 309 310 313 318 323 326 329 331 332 331 330 330 329 327 323 319 308
261 258 255 253 250 249 247 246 245 245 245 244 244 244 243 242 240 238 236 235 234 232 230 228 227 226 225 226 227 229 230 231 231 231 232 234 237 239 240 242 245 247 249 251 254 255 258 260 263 265 269 272 275 278 281 282 283 284 284 283 281 281 281 282 284 287 293 298 301 305 310 313 316 321 326 327 327 327 326 326 327 324 318 312 303
264 261 259 256 254 254 252 250 249 249 248 247 246 246 244 242 241 239 236 235 234 233 230 229 228 227 227 228 228 229 229 230 230 232 234 237 240 241 241 243 245 248 250 252 254 255 256 259 261 264 268 271 274 278 282 284 286 287 286 284 282 281 280 280 282 285 287 290 294 300 304 305 308 315 321 323 324 324 323 322 324 321 313 307 300
265 263 261 259 257 256 255 252 251 251 250 248 247 247 246 244 243 241 238 236 235 233 231 230 230 229 229 230 231 230 231 231 232 234 237 241 242 242 242 244 246 248 250 251 253 255 256 258 261 264 268 271 274 278 282 284 286 288 288 286 284 283 281 280 280 282 283 284 287 292 295 297 301 309 316 319 321 321 319 317 318 315 310 305 299
Height
796 798 799 802 804 806 808 811 813 816 818 820 823 826 829 831 833 835 837 839 840 842 844 846 848 849 850 852 852 854 855 856 857 858 859 859 860 861 861 862 863 862 863 864 864 864 864 864 864 863 864 863 863 863 862 862 861 859 860 858 857 857 855 854 852 839 824 824 826 823 822 821 816 814 812 806 801 799 797 797 794 790 787 784 780
795 797 798 801 803 805 807 810 812 814 816 819 821 824 827 829 831 833 835 837 839 841 843 845 847 848 849 851 852 853 854 855 856 857 858 859 859 860 861 861 862 862 863 863 863 863 862 862 863 862 862 862 862 862 861 860 859 858 858 857 855 855 855 852 850 844 830 820 820 820 818 819 816 813 812 808 803 797 793 791 790 787 783 780 777
794 796 797 800 802 804 806 808 811 813 815 818 820 823 825 827 830 831 833 836 838 840 842 844 846 847 848 850 851 852 853 854 856 857 858 858 859 859 860 861 861 861 862 862 861 862 862 861 861 861 861 861 860 860 860 858 858 857 856 855 854 853 853 852 848 845 837 824 818 817 815 814 813 811 810 807 804 800 794 790 787 785 780 776 773
792 794 796 799 801 803 805 807 810 812 814 817 819 821 824 826 828 830 832 834 836 839 841 843 844 845 847 848 850 851 853 854 855 856 857 858 858 859 859 859 860 860 860 860 860 860 860 860 860 859 859 859 859 858 858 857 856 855 854 853 853 851 850 850 848 845 840 830 821 817 816 814 810 809 808 805 802 800 796 790 786 783 779 774 772
791 793 795 798 800 802 804 806 808 810 813 815 818 820 822 824 826 828 830 833 835 837 840 841 843 844 846 847 849 850 852 853 854 855 856 857 857 858 858 858 859 859 859 859 859 859 859 858 858 858 857 857 858 857 856 855 854 853 852 851 850 849 847 846 845 843 841 835 826 819 816 815 810 807 807 805 800 796 794 789 784 780 775 769 767
791 793 795 797 799 801 803 805 807 809 812 814 816 818 820 822 825 827 829 831 834 836 838 840 842 844 845 847 848 850 851 853 854 855 855 856 856 857 857 858 858 858 858 858 858 858 858 857 857 857 857 856 856 855 854 853 852 851 850 849 848 847 845 843 842 841 838 835 830 822 817 814 811 806 805 805 800 795 791 787 782 779 774 765 759
790 792 794 796 798 800 803 805 807 809 811 813 815 817 819 822 824 826 829 831 833 835 837 839 841 843 845 846 848 849 851 852 853 854 854 855 855 856 856 857 857 857 857 857 857 857 856 856 856 855 856 855 854 854 853 852 851 850 849 848 846 845 843 842 840 839 836 833 829 825 818 815 812 807 803 802 800 795 792 787 779 775 773 766 758
789 791 793 796 798 800 802 805 806 808 810 812 814 816 819 821 823 826 829 831 832 834 836 838 840 842 844 846 847 849 850 851 852 853 853 854 854 855 855 855 856 856 856 856 856 856 856 855 855 855 854 854 854 853 852 851 849 849 848 846 845 843 842 840 838 836 834 830 827 824 819 813 811 808 803 799 796 792 790 788 781 774 771 766 760
788 790 792 795 797 799 801 803 805 807 809 811 813 816 818 821 823 826 828 830 832 833 835 837 839 841 843 845 846 848 849 850 851 851 852 853 853 853 854 854 855 855 855 855 855 855 855 854 854 854 853 853 853 852 851 850 849 847 846 845 844 842 840 839 837 834 831 828 824 822 818 812 809 807 803 800 797 792 788 787 782 775 770 764 758
787 789 791 793 796 798 800 802 804 806 808 810 813 815 817 820 822 825 827 829 831 832 834 836 838 840 841 843 845 846 848 849 849 850 851 851 852 852 852 853 853 854 854 854 854 853 853 853 853 853 852 852 851 850 849 848 847 847 846 844 843 841 839 837 835 833 830 826 823 821 818 812 808 807 805 801 798 793 788 785 780 774 769 762 754
786 788 791 793 795 797 799 801 803 806 808 810 812 814 817 819 822 824 826 828 830 831 833 835 837 838 840 842 843 845 846 847 848 849 849 850 850 851 851 852 852 852 852 852 852 852 852 852 852 851 851 850 849 848 847 846 846 845 845 844 842 841 839 836 833 831 829 826 822 820 819 813 808 806 805 801 796 792 788 784 780 775 769 763 754
786 788 790 792 794 796 798 800 803 805 807 809 811 814 816 819 821 823 825 827 829 831 833 834 836 838 839 840 842 843 844 845 846 847 848 849 849 850 850 850 850 851 851 851 850 850 850 850 850 850 849 848 847 846 845 844 844 844 843 842 841 839 838 837 834 831 828 825 821 818 818 814 808 805 803 800 796 791 786 782 780 776 770 766 758
785 787 789 792 793 796 798 800 802 804 806 809 811 814 816 818 820 822 824 827 829 831 833 834 835 837 838 839 840 841 842 844 844 845 846 847 848 849 849 849 849 849 850 849 849 849 849 848 848 848 847 846 845 844 843 843 843 842 840 839 838 836 836 835 833 831 828 826 821 817 815 813 808 804 802 800 796 791 785 781 779 776 771 765 758
784 786 788 791 793 795 798 799 802 804 806 809 811 814 816 818 820 822 824 826 828 830 832 833 835 837 838 839 839 840 841 842 843 844 845 846 847 847 848 848 848 848 848 848 847 847 847 847 846 846 846 845 844 843 842 842 841 839 837 836 835 833 832 831 830 829 827 825 821 817 814 812 808 803 801 800 796 791 786 781 778 776 770 764 758
782 785 787 789 792 794 796 799 801 803 806 809 811 813 815 817 819 821 823 825 827 829 830 832 834 835 837 838 838 839 840 841 842 842 843 845 845 846 846 847 847 847 847 847 846 846 846 845 845 845 844 843 843 842 842 840 838 836 834 833 832 830 829 827 826 825 824 822 820 816 812 809 806 802 800 798 795 790 786 782 778 774 769 762 756
781 783 785 787 789 792 794 797 800 802 805 808 810 812 814 816 818 820 822 824 826 828 830 831 832 834 836 837 837 838 839 840 841 841 842 843 844 844 845 845 845 846 845 845 845 844 844 844 844 843 843 842 842 842 841 838 835 833 830 829 828 826 825 824 823 822 820 818 816 813 809 805 803 801 798 796 792 788 784 779 776 772 767 760 754
779 781 783 785 788 790 793 795 798 801 804 806 808 810 812 814 816 818 820 823 825 827 828 830 832 833 834 836 836 837 838 839 839 840 840 841 842 843 843 843 843 844 844 844 843 843 843 843 842 842 841 841 841 840 839 836 833 830 827 825 823 821 820 820 819 819 818 815 812 809 805 803 800 797 795 793 790 787 783 778 774 770 765 759 754
777 780 782 784 787 789 791 794 796 799 802 804 806 808 810 813 815 817 819 821 823 825 827 828 831 832 833 835 835 836 837 837 838 838 839 839 840 841 841 841 841 842 842 842 842 842 842 841 841 841 840 841 840 839 837 834 832 829 826 823 819 817 816 814 813 811 809 808 806 804 801 799 796 793 790 789 788 786 783 778 774 770 765 759 754
775 778 780 783 786 788 790 793 795 797 800 802 804 807 809 811 814 816 819 820 822 824 826 827 829 831 832 833 834 835 835 836 837 837 837 837 838 839 839 839 839 840 840 840 840 840 840 840 840 840 840 840 838 837 835 833 831 828 826 823 820 817 814 813 809 805 802 799 798 796 793 792 790 788 786 784 782 781 780 778 774 770 765 759 754
773 776 779 782 784 787 789 792 794 796 799 801 804 806 808 810 813 815 818 819 821 822 824 826 828 829 831 832 833 834 834 834 835 836 836 836 836 836 837 837 837 837 838 838 838 838 839 839 839 839 839 838 837 835 833 832 830 828 826 824 822 818 815 812 809 806 802 798 795 792 789 787 786 784 782 779 776 775 774 773 771 768 764 759 753
772 774 777 780 783 785 788 790 793 796 798 800 802 805 807 809 811 814 816 817 819 821 823 825 827 828 829 830 831 832 832 833 834 834 835 835 834 834 835 835 835 836 836 836 836 837 837 837 838 838 838 836 835 833 832 830 829 827 826 825 824 820 816 811 808 805 802 797 793 790 788 785 782 780 778 775 773 771 769 767 766 765 762 758 752
770 773 776 778 781 784 787 790 792 795 797 799 801 803 806 809 810 812 814 816 818 820 822 824 825 826 828 829 829 830 831 831 832 833 833 833 833 833 833 833 833 834 834 834 835 835 836 836 836 836 835 834 833 831 830 829 828 827 826 825 823 819 816 812 807 804 800 797 793 790 787 784 781 777 774 772 771 769 767 764 761 760 758 756 752
769 772 774 777 780 783 785 788 790 793 795 797 799 801 804 807 809 811 813 814 816 818 820 822 823 824 826 827 827 828 829 830 831 831 831 831 831 831 832 832 832 832 832 833 833 834 834 834 834 834 833 832 831 830 829 828 827 826 825 824 821 818 814 810 807 803 800 797 794 791 788 786 782 778 774 771 769 767 765 762 759 756 754 751 749
769 772 774 777 779 782 784 787 789 792 794 796 799 801 803 806 808 810 811 813 814 816 818 820 821 822 823 824 825 826 827 828 829 829 829 829 830 830 830 830 830 830 831 831 831 832 833 832 832 831 830 829 829 828 827 826 825 824 823 821 818 815 812 808 806 803 800 797 794 791 789 787 784 780 776 772 769 766 764 762 759 755 751 748 745
768 771 773 776 778 780 783 786 788 790 793 795 797 799 801 803 805 807 809 811 812 814 816 818 819 820 821 822 823 824 825 826 826 827 827 827 828 828 828 828 828 829 829 829 830 831 831 830 829 829 828 828 827 826 825 824 823 822 820 818 816 813 810 807 805 802 799 797 794 792 788 786 783 780 777 773 769 766 763 759 756 753 749 745 741
767 770 772 774 777 779 781 784 787 789 792 794 796 797 799 801 802 804 807 809 811 813 814 816 817 818 819 819 821 822 823 824 824 824 825 825 825 826 826 826 826 827 827 828 828 828 828 828 827 827 827 826 825 824 823 821 820 819 817 815 813 810 808 806 803 801 799 796 794 791 788 785 781 779 776 773 769 766 762 758 754 750 747 743 738
766 769 771 773 776 778 780 782 784 787 790 792 794 797 798 799 800 802 804 806 809 811 812 813 814 815 816 817 819 820 820 821 821 822 822 823 823 824 824 824 825 825 826 826 825 825 826 826 826 826 825 825 823 822 821 819 818 816 815 813 811 809 807 805 804 802 799 797 793 790 787 784 780 776 774 771 768 765 762 759 755 750 746 743 738
765 767 770 772 774 776 778 780 782 785 788 790 792 794 795 797 798 800 801 803 805 807 809 810 811 812 813 814 816 817 818 818 819 819 820 821 821 821 822 822 823 823 823 823 823 823 824 824 824 824 824 823 821 820 819 817 816 814 813 811 809 808 806 805 803 801 799 797 793 789 786 783 779 775 772 769 767 764 761 758 755 751 747 743 739
765 767 769 771 773 775 777 779 781 783 786 788 790 792 794 795 797 799 801 803 804 805 806 807 808 809 811 812 813 814 814 815 816 817 818 819 819 819 820 821 821 821 821 821 822 822 823 823 823 822 821 820 818 817 815 814 813 812 811 809 808 806 804 803 801 800 798 795 792 789 785 782 778 775 771 768 765 763 760 757 754 750 747 743 740
765 767 768 770 772 774 776 778 780 782 784 786 788 791 793 795 797 798 800 802 803 805 805 806 807 808 809 810 811 811 812 812 813 815 817 817 817 817 818 819 819 819 819 820 820 821 821 821 820 818 817 816 815 814 813 811 810 810 809 807 806 804 802 801 800 798 796 794 791 788 785 781 777 774 770 767 763 761 758 756 753 750 746 743 740
763 765 766 768 770 772 774 776 778 780 783 784 786 789 791 794 796 798 800 801 802 803 803 804 805 806 807 808 808 808 809 810 811 813 814 815 814 815 815 816 816 816 817 818 818 819 819 818 816 815 814 814 813 812 811 810 809 807 806 805 804 803 801 800 798 796 794 792 790 787 784 780 776 773 770 767 763 759 756 754 752 749 747 744 740
761 762 765 767 769 771 773 775 777 779 781 783 785 787 789 791 794 796 798 799 800 801 801 802 803 804 806 806 806 806 806 807 809 811 812 812 812 812 813 813 813 814 815 816 816 816 816 815 813 812 812 812 812 811 810 808 807 806 805 803 802 801 800 799 797 795 793 790 788 785 782 779 776 773 770 767 763 759 755 752 750 748 746 743 740
759 761 763 765 767 770 771 772 774 776 777 779 782 784 785 787 789 792 795 797 799 799 799 800 801 802 804 804 804 804 804 805 807 809 810 810 810 810 811 811 811 812 813 814 815 814 813 812 811 810 810 810 810 810 809 807 806 805 804 802 800 799 798 797 796 794 792 790 787 784 781 778 775 772 769 766 763 759 756 752 750 748 745 743 740
759 760 762 763 765 767 768 770 772 773 775 777 778 780 782 784 785 788 791 793 795 796 797 798 799 801 802 802 802 802 802 804 805 806 806 807 807 808 809 809 810 811 811 812 812 812 811 809 808 808 808 808 809 808 807 806 805 803 802 801 799 797 796 795 794 792 790 788 786 783 780 778 774 771 768 765 762 759 756 753 750 748 745 743 740
759 761 762 763 764 766 767 769 770 772 774 776 777 778 780 782 783 785 786 787 789 791 793 795 797 799 800 800 800 800 801 802 803 803 803 804 804 805 806 807 807 809 809 810 810 810 808 807 807 806 806 806 807 807 805 804 803 802 800 798 797 796 794 793 792 791 789 786 784 782 780 777 774 771 768 764 761 758 755 753 751 748 746 743 740
759 760 762 763 764 766 767 769 770 771 772 774 775 777 778 780 781 783 784 785 786 788 790 792 794 796 797 798 798 798 799 801 801 800 801 801 801 802 803 803 805 806 807 807 808 807 806 805 805 805 804 805 805 805 804 803 801 800 798 797 795 794 793 792 790 789 787 785 783 781 779 776 773 770 767 764 762 759 756 753 751 748 746 744 741
758 759 760 761 763 764 766 767 769 770 771 773 774 776 777 778 779 780 782 783 784 785 787 789 791 793 794 794 795 796 798 799 799 799 800 800 799 799 800 800 802 803 804 805 805 804 804 803 803 803 803 803 803 803 802 801 800 798 797 796 794 793 791 790 789 788 786 784 781 780 778 775 772 769 767 764 761 758 756 754 751 748 746 743 741
756 757 759 760 761 763 764 766 767 769 770 771 772 773 774 775 777 778 779 780 781 783 784 786 787 788 788 790 792 793 796 797 797 797 797 797 797 797 797 797 798 800 801 802 802 802 801 801 801 801 801 801 801 800 800 799 798 796 795 794 793 792 790 789 787 786 784 782 780 778 776 774 771 769 766 763 761 758 756 753 751 748 745 742 740
754 756 758 759 760 762 763 764 765 767 767 769 770 771 772 773 774 774 776 777 778 780 781 782 782 783 784 786 788 790 792 793 792 792 793 794 794 795 795 795 796 797 798 799 799 799 799 799 799 799 799 799 799 798 797 797 796 794 793 792 791 790 788 787 785 784 782 780 779 777 775 773 770 768 765 763 760 758 755 753 750 748 745 742 740
752 754 756 757 759 760 761 762 763 764 765 766 767 768 769 770 770 771 773 774 775 776 777 777 778 779 781 783 784 785 787 788 788 788 790 791 792 793 793 793 793 794 795 796 796 796 796 797 797 797 797 797 796 796 795 794 793 791 790 790 789 787 786 785 783 782 780 779 777 775 773 771 769 766 764 762 760 758 755 753 750 748 745 742 740
751 752 753 755 756 758 759 760 761 762 763 765 765 766 766 767 768 769 770 771 772 773 773 774 775 777 779 780 781 783 784 785 786 787 787 788 789 790 791 791 791 790 791 793 794 794 794 794 794 794 794 794 794 793 792 791 790 788 787 787 786 785 784 782 781 780 778 777 776 774 772 769 767 765 763 761 759 757 755 752 749 747 744 742 740
749 750 752 753 754 755 756 757 758 760 761 762 762 763 764 764 766 766 767 768 769 770 771 772 773 775 776 778 779 781 782 783 783 784 784 785 786 787 788 789 788 788 788 789 790 791 792 791 791 791 791 791 791 790 789 788 787 785 784 784 784 783 782 780 779 778 777 775 774 772 770 768 766 764 762 760 758 756 753 751 748 746 744 742 740
747 748 750 751 752 753 754 755 756 758 758 759 760 761 761 762 763 764 764 765 766 767 768 769 770 772 773 775 776 777 778 779 780 780 780 781 782 783 785 786 786 785 785 786 787 789 789 789 788 788 788 788 788 787 787 785 784 782 781 781 781 780 779 778 777 776 775 774 773 771 769 767 765 762 760 758 756 754 752 750 747 745 743 742 740
745 747 748 749 750 751 752 753 754 755 756 757 758 759 759 760 761 761 762 762 763 763 764 765 766 768 770 771 773 773 774 774 775 776 776 777 778 780 782 783 783 782 782 783 784 785 785 785 785 785 784 784 784 784 784 783 781 780 779 778 778 777 776 776 775 774 773 772 771 769 767 765 763 761 759 757 755 753 751 749 747 745 743 742 740
743 744 745 746 747 748 749 750 751 752 753 754 755 755 756 757 757 757 758 759 759 760 761 762 763 765 766 767 768 769 769 770 772 773 774 774 775 777 779 780 780 779 779 780 781 782 782 782 782 781 781 781 781 781 781 780 779 777 776 775 775 774 774 773 772 771 771 770 769 768 766 763 761 759 757 755 754 752 750 748 746 745 743 741 740
741 742 743 744 745 745 746 747 748 749 750 751 751 751 752 752 753 753 754 755 756 757 757 759 760 762 762 764 764 765 766 768 769 770 771 772 772 774 776 777 777 776 776 777 778 779 779 779 778 778 777 777 778 778 778 777 776 775 774 773 772 771 771 770 770 769 768 768 767 766 764 762 760 758 756 754 752 751 749 747 746 744 743 742 740
739 740 740 741 742 742 744 745 745 746 747 747 747 748 748 748 749 750 750 751 752 753 753 755 757 758 759 760 761 762 763 765 766 767 768 769 770 771 772 773 773 773 773 774 774 775 776 776 775 775 774 774 774 775 775 774 773 772 771 770 769 768 768 767 767 766 766 765 765 764 762 760 758 756 754 753 751 749 748 746 745 744 742 741 740
737 738 738 739 739 740 741 742 742 743 743 743 744 744 745 745 746 746 746 747 747 748 749 750 752 753 754 756 757 759 761 762 763 764 765 766 766 768 768 769 770 770 770 770 771 772 773 773 772 772 771 771 771 771 771 770 770 769 768 767 767 766 765 764 764 763 763 762 762 761 760 758 757 755 753 751 750 748 746 745 744 743 742 741 740
736 736 736 736 737 737 738 739 739 739 739 740 741 741 741 742 742 742 742 743 743 744 745 746 747 748 750 751 753 755 756 757 758 760 761 762 763 764 764 765 766 766 766 767 768 769 769 770 769 769 768 768 768 767 767 767 766 766 765 764 764 763 762 761 760 760 760 759 759 759 758 756 755 753 752 750 748 747 745 744 743 742 741 740 739
734 734 734 734 734 735 735 736 736 736 737 738 738 737 738 738 738 738 738 739 739 740 741 743 743 744 746 747 748 750 751 752 754 755 757 758 760 760 761 762 762 762 763 764 764 765 766 766 766 765 765 764 764 764 763 763 763 762 762 761 760 759 759 758 757 757 757 756 756 756 755 754 752 751 750 748 747 745 744 743 741 740 740 738 738
731 731 732 732 732 732 733 733 733 733 734 734 734 734 735 734 734 734 735 735 735 735 737 738 739 741 742 743 745 746 747 749 751 752 754 755 756 756 757 758 758 759 760 760 761 762 762 762 762 762 761 761 761 760 760 759 759 759 758 758 757 756 755 755 754 754 753 753 753 753 752 751 750 749 748 746 745 743 742 741 740 739 738 737 736